EFKI

Details ICAO EFKI (KAJ)
Name Kajaani
Region Finland
Timezone Europe/Helsinki (UTC+3.0)
Plans Departing 10
Arriving 15
Stats Elevation 483 ft / 147 m (AMSL)
Location 64.285471° 27.692417°
Runways 1
Magnetic Variation 11.550° E
Sunrise 2018-05-22 00:32:27 UTC / 2018-05-22 03:32:27 Local
Sunset 2018-05-22 19:42:11 UTC / 2018-05-22 22:42:11 Local
Advertisement - Login to hide

Runways

ID Width Length Bearing (true) Bearing (mag) Surface Threshold Offset Overrun Length
07 157 ft / 48 m 8,172 ft / 2,491 m 79.57° 68.02° Asphalt 0 ft / 0 m 0 ft / 0 m
25 157 ft / 48 m 8,172 ft / 2,491 m 259.61° 248.06° Asphalt 0 ft / 0 m 0 ft / 0 m

Approach Navaids

Runway Type Ident Frequency Range Bearing (true) Bearing (mag) Slope Elevation
07 Localiser KI 109.90 MHz 18 nm / 33 km 79.62° 68.07° - 483 ft / 147 m (AMSL)
07 Glidescope KI 109.90 MHz 10 nm / 19 km 79.59° 68.04° 3.00° 483 ft / 147 m (AMSL)
07 DME KI 109.90 MHz 18 nm / 33 km - - - 500 ft / 152 m (AMSL)

Map

Weather


0- 5 10 15 20 25 30 35+ Temperature / ° C

Clouds and Precipitation
Forecast for 2018-05-22 06:00 UTC. Updated 3 hours ago

Ground ~20,000 ft ~40,000 ft Winds

METAR

EFKI 220820Z AUTO VRB03KT CAVOK 23/06 Q1022

TAF

Not found

Frequencies

Tower 118.10 MHz AFIS
Tower 119.70 MHz AFIS
Warning: Do not use this data for real-world aviation or navigation. No guarantee of current accuracy is given.